This is the latest recevied weather packets stored in our database for station/object KI5MKI. If no packets are shown the sender has not sent any weather packets the latest 10 day(s).
| Time | Temp. | Humidity | Pressure | Rain* | Wind** | Luminosity | Snow |
|---|---|---|---|---|---|---|---|
| 1777782884 | 16.67° C | 59% | 1020.5 hPa | 0 mm | - | 0 W/m² | - |
| 1777782581 | 16.67° C | 57% | 1020.5 hPa | 0 mm | - | 0 W/m² | - |
| 1777782278 | 16.67° C | 57% | 1020.5 hPa | 0 mm | - | 0 W/m² | - |
| 1777781974 | 16.67° C | 58% | 1020.5 hPa | 0 mm | - | 0 W/m² | - |
| 1777781671 | 17.22° C | 57% | 1020.4 hPa | 0 mm | - | 0 W/m² | - |
| 1777781368 | 17.78° C | 55% | 1020.5 hPa | 0 mm | - | 0 W/m² | - |
| 1777781066 | 17.22° C | 54% | 1020.3 hPa | 0 mm | - | 0 W/m² | - |
| 1777780763 | 17.22° C | 57% | 1020.4 hPa | 0 mm | - | 0 W/m² | - |
| 1777780460 | 17.22° C | 58% | 1020.6 hPa | 0 mm | - | 0 W/m² | - |
| 1777780157 | 17.22° C | 59% | 1020.3 hPa | 0 mm | - | 0 W/m² | - |
| 1777779855 | 17.78° C | 57% | 1020.4 hPa | 0 mm | - | 0 W/m² | - |
| 1777779552 | 17.22° C | 58% | 1020.5 hPa | 0 mm | - | 0 W/m² | - |
| 1777779249 | 17.22° C | 59% | 1020.4 hPa | 0 mm | - | 0 W/m² | - |
| 1777778947 | 16.67° C | 60% | 1020.4 hPa | 0 mm | - | 0 W/m² | - |
| 1777778646 | 16.67° C | 61% | 1020.4 hPa | 0 mm | - | 0 W/m² | - |
| 1777778343 | 17.22° C | 59% | 1020.5 hPa | 0 mm | - | 0 W/m² | - |
| 1777778040 | 17.22° C | 57% | 1020.3 hPa | 0 mm | - | 0 W/m² | - |
| 1777777736 | 16.67° C | 59% | 1020.3 hPa | 0 mm | - | 0 W/m² | - |
| 1777777433 | 16.11° C | 64% | 1020.2 hPa | 0 mm | - | 0 W/m² | - |
| 1777777129 | 16.67° C | 61% | 1020.3 hPa | 0 mm | - | 0 W/m² | - |
| 1777776827 | 16.67° C | 60% | 1020.1 hPa | 0 mm | - | 0 W/m² | - |
| 1777776524 | 16.67° C | 62% | 1020.2 hPa | 0 mm | - | 0 W/m² | - |
| 1777776220 | 16.67° C | 60% | 1020.2 hPa | 0 mm | - | 0 W/m² | - |
| 1777775917 | 16.67° C | 63% | 1020.1 hPa | 0 mm | - | 0 W/m² | - |
| 1777775616 | 16.67° C | 62% | 1020.2 hPa | 0 mm | - | 0 W/m² | - |
* Rain latest hour (hover to see other rain measurements)
** Current wind speed in m/s (hover to see current wind gust speed)